User: anonymous   Login
Location: Oshawa
(43.9000°N, 78.8670°W)
Time: 21:46:05
(UTC-04:00)
Language:

Explorer 7 - Orbit

View from above orbital plane
View from above orbital plane
View from above satellite
View from above satellite

Ground track
Ground track

The orbit data is extracted from the following two-line orbital elements,

1 00022U 59009A   18170.85359219 -.00000071  00000-0  18180-4 0  9997
2 00022  50.2847 279.2075 0140864 356.1787   3.8073 14.94566892116333
Epoch (UTC): 19 June 2018 20:29:10
Eccentricity: 0.0140864
inclination: 50.2847°
perigee height: 485 km
apogee height: 682 km
right ascension of ascending node: 279.2075°
argument of perigee: 356.1787°
revolutions per day: 14.94566892
mean anomaly at epoch: 3.8073°
orbit number at epoch: 11633

The dashed part of the orbit path shows where the satellite is in the earth's shadow,  

DLR